Rochelle, IL

5:33 AM CST on November 20, 2019 (GMT -0600)
Rochelle

Weather History for KRPJ - August, 2019

Change the Weather History Date:

Monday, August 26, 2019

  Actual Average (WUND) Record (WUND)
Temperature  
Mean Temperature 70 °F -  
Max Temperature 77 °F - - (-1)
Min Temperature 63 °F - - (-1)
Cooling Degree Days 4    
Growing Degree Days 20 (Base 50)    
Moisture  
Dew Point 66 °F    
Average Humidity 93    
Maximum Humidity 100    
Minimum Humidity 77    
Precipitation  
Precipitation 1.00 in - - ()
Sea Level Pressure  
Sea Level Pressure 29.78 in    
Wind  
Wind Speed 7 mph ()    
Max Wind Speed 17 mph    
Max Gust Speed 18 mph    
Visibility 8.6 miles    
Events Rain , Thunderstorm    
Averages and records for this station are not official NWS values.
T = Trace of Precipitation, MM = Missing Value Source: Averaged Metar Reports

Daily Weather History Graph

Daily Weather History Graph

Search for Another Location

Airport or City:

Astronomy

Aug. 26, 2019 Rise Set
Actual Time 6:15 AM CDT 7:39 PM CDT
Civil Twilight 5:46 AM CDT 8:08 PM CDT
Nautical Twilight 5:11 AM CDT 8:43 PM CDT
Astronomical Twilight 4:34 AM CDT 9:20 PM CDT
Moon 1:37 AM CDT (8/26) 5:06 PM CDT (8/26)
Length of Visible Light 14h 22m
Length of Day
13h 24m
Waning Crescent, 19% of the Moon is Illuminated
Aug 26
Waning Crescent
Aug 30
New
Sep 5
First Quarter
Sep 13
Full
Sep 21
Last Quarter

Hourly Weather History & Observations

Time (CDT) Temp. Dew Point Humidity Pressure Visibility Wind Dir Wind Speed Gust Speed Precip Events Conditions
12:15 AM 66.4 °F 59.0 °F 77% 29.93 in 10.0 mi East 6.9 mph - N/A   Overcast
12:35 AM 66.6 °F 59.0 °F 77% 29.93 in 10.0 mi East 5.8 mph - N/A   Overcast
12:55 AM 66.2 °F 59.0 °F 78% 29.92 in 10.0 mi East 5.8 mph - N/A   Overcast
1:15 AM 65.7 °F 59.5 °F 81% 29.92 in 10.0 mi East 6.9 mph - N/A   Overcast
1:35 AM 65.5 °F 59.9 °F 82% 29.91 in 10.0 mi ESE 4.6 mph - N/A   Overcast
1:55 AM 66.2 °F 60.1 °F 81% 29.90 in 10.0 mi East 5.8 mph - N/A   Overcast
2:15 AM 66.2 °F 60.6 °F 82% 29.90 in 10.0 mi ESE 6.9 mph - N/A   Overcast
2:35 AM 65.5 °F 61.2 °F 86% 29.89 in 10.0 mi East 5.8 mph - N/A   Overcast
2:55 AM 65.3 °F 61.5 °F 88% 29.89 in 10.0 mi ESE 4.6 mph - N/A   Overcast
3:15 AM 65.3 °F 61.9 °F 89% 29.89 in 10.0 mi ESE 4.6 mph - N/A Rain , Thunderstorm Rain
3:35 AM 63.5 °F 62.8 °F 97% 29.88 in 4.0 mi East 4.6 mph - 0.15 in Rain Heavy Rain
3:55 AM 63.3 °F 63.1 °F 99% 29.88 in 3.0 mi East 4.6 mph - 0.34 in Rain , Thunderstorm Light Thunderstorms and Rain
4:15 AM 63.5 °F 63.5 °F 100% 29.86 in 7.0 mi ENE 8.1 mph - 0.01 in Rain Light Rain
4:35 AM 63.3 °F 63.3 °F 100% 29.86 in 7.0 mi ENE 8.1 mph - 0.02 in Rain Light Rain
5:15 AM 63.5 °F 63.1 °F 99% 29.84 in 10.0 mi ENE 9.2 mph - N/A   Overcast
5:35 AM 63.5 °F 63.1 °F 99% 29.84 in 7.0 mi East 8.1 mph - 0.03 in Rain Light Rain
5:55 AM 63.7 °F 63.5 °F 99% 29.85 in 7.0 mi East 8.1 mph - 0.03 in   Overcast
6:15 AM 63.7 °F 63.5 °F 99% 29.84 in 5.0 mi ESE 6.9 mph - 0.02 in Rain Heavy Rain
6:35 AM 63.5 °F 63.5 °F 100% 29.83 in 5.0 mi East 8.1 mph - 0.09 in   Overcast
6:55 AM 63.5 °F 63.5 °F 100% 29.83 in 7.0 mi East 6.9 mph - 0.12 in Rain Light Rain
7:15 AM 63.5 °F 63.5 °F 100% 29.83 in 7.0 mi East 6.9 mph - 0.01 in Rain Light Rain
7:35 AM 63.5 °F 63.5 °F 100% 29.82 in 4.0 mi East 8.1 mph - 0.03 in Rain Rain
7:55 AM 63.5 °F 63.5 °F 100% 29.80 in 2.5 mi East 10.4 mph - 0.13 in Rain Rain
8:15 AM 63.7 °F 63.7 °F 100% 29.82 in 5.0 mi ESE 8.1 mph - 0.01 in Rain Rain
8:35 AM 64.0 °F 64.0 °F 100% 29.80 in 2.5 mi East 9.2 mph - 0.26 in Rain Light Rain
8:55 AM 64.2 °F 64.2 °F 100% 29.80 in 7.0 mi East 10.4 mph - 0.27 in Rain Light Rain
9:15 AM 64.6 °F 64.6 °F 100% 29.79 in 10.0 mi East 5.8 mph - N/A   Overcast
9:35 AM 65.5 °F 65.5 °F 100% 29.79 in 10.0 mi East 9.2 mph - N/A Rain Light Rain
9:55 AM 66.4 °F 66.4 °F 100% 29.78 in 10.0 mi ESE 11.5 mph - N/A   Overcast
10:15 AM 67.5 °F 67.5 °F 100% 29.76 in 5.0 mi ESE 9.2 mph - N/A   Overcast
10:35 AM 68.0 °F 68.0 °F 100% 29.77 in 5.0 mi SE 11.5 mph - N/A   Overcast
10:55 AM 68.5 °F 68.4 °F 99% 29.77 in 10.0 mi ESE 6.9 mph - N/A   Overcast
11:15 AM 69.1 °F 68.9 °F 99% 29.76 in 10.0 mi ESE 10.4 mph - N/A   Overcast
11:35 AM 70.2 °F 69.8 °F 99% 29.75 in 7.0 mi SE 11.5 mph 17.3 mph N/A   Overcast
11:55 AM 73.2 °F 71.6 °F 95% 29.74 in 10.0 mi SE 12.7 mph - N/A   Overcast
12:15 PM 72.7 °F 70.7 °F 93% 29.72 in 10.0 mi ESE 10.4 mph 18.4 mph N/A   Overcast
12:35 PM 71.1 °F 69.8 °F 96% 29.73 in 4.0 mi South 8.1 mph - 0.04 in Rain Light Rain
12:55 PM 71.8 °F 70.0 °F 94% 29.72 in 10.0 mi South 8.1 mph - 0.04 in   Overcast
1:15 PM 74.1 °F 70.7 °F 89% 29.72 in 10.0 mi South 11.5 mph - N/A   Overcast
1:35 PM 76.1 °F 69.8 °F 81% 29.72 in 10.0 mi SSW 12.7 mph - N/A   Overcast
1:55 PM 75.0 °F 69.6 °F 83% 29.71 in 10.0 mi South 12.7 mph - N/A   Overcast
2:15 PM 76.8 °F 70.2 °F 80% 29.70 in 10.0 mi SSW 10.4 mph 17.3 mph N/A   Overcast
2:35 PM 75.0 °F 69.8 °F 84% 29.69 in 10.0 mi SW 11.5 mph 17.3 mph N/A   Overcast
2:55 PM 72.1 °F 70.2 °F 93% 29.68 in 10.0 mi SW 10.4 mph - 0.05 in   Overcast
3:15 PM 73.0 °F 70.3 °F 91% 29.68 in 10.0 mi WSW 11.5 mph - N/A   Overcast
3:35 PM 73.8 °F 70.7 °F 90% 29.67 in 10.0 mi WSW 6.9 mph - N/A   Overcast
3:55 PM 74.1 °F 68.7 °F 83% 29.66 in 10.0 mi SSW 3.5 mph - N/A   Mostly Cloudy
4:15 PM 74.8 °F 69.6 °F 84% 29.67 in 10.0 mi WSW 8.1 mph - N/A   Scattered Clouds
4:35 PM 74.3 °F 69.8 °F 86% 29.67 in 10.0 mi SW 6.9 mph - N/A   Overcast
4:55 PM 73.0 °F 70.3 °F 91% 29.67 in 7.0 mi WSW 6.9 mph - N/A Rain Light Rain
5:15 PM 73.4 °F 70.0 °F 89% 29.68 in 10.0 mi West 9.2 mph - N/A   Overcast
5:35 PM 73.4 °F 70.0 °F 89% 29.68 in 10.0 mi WSW 5.8 mph - N/A   Overcast
5:55 PM 73.6 °F 69.6 °F 87% 29.69 in 10.0 mi WSW 11.5 mph - N/A   Overcast
6:15 PM 72.5 °F 69.8 °F 91% 29.70 in 5.0 mi WSW 8.1 mph - N/A Rain Heavy Rain
6:35 PM 71.8 °F 70.7 °F 96% 29.71 in 10.0 mi WSW 9.2 mph - N/A   Overcast
6:55 PM 72.0 °F 70.0 °F 93% 29.71 in 10.0 mi West 12.7 mph - N/A   Overcast
7:15 PM 70.9 °F 69.1 °F 94% 29.72 in 10.0 mi West 12.7 mph - N/A   Overcast
7:35 PM 70.0 °F 68.0 °F 93% 29.73 in 10.0 mi West 17.3 mph - N/A   Overcast
7:55 PM 69.3 °F 67.5 °F 94% 29.74 in 10.0 mi West 15.0 mph - N/A   Overcast
8:15 PM 68.4 °F 67.8 °F 98% 29.73 in 10.0 mi West 10.4 mph - N/A   Overcast
8:35 PM 68.4 °F 68.0 °F 99% 29.74 in 10.0 mi WSW 8.1 mph - N/A   Overcast
8:55 PM 68.4 °F 67.5 °F 97% 29.75 in 10.0 mi WSW 6.9 mph - N/A   Overcast
9:15 PM 68.2 °F 67.6 °F 98% 29.76 in 10.0 mi WSW 6.9 mph - N/A   Overcast
9:30 PM 68.2 °F 67.6 °F 98% 29.76 in 10.0 mi WSW 8.1 mph - N/A   Overcast
9:55 PM 68.0 °F 67.5 °F 98% 29.77 in 10.0 mi WSW 5.8 mph - N/A   Overcast
10:15 PM 67.8 °F 67.6 °F 99% 29.76 in 10.0 mi WSW 6.9 mph - N/A   Overcast
10:35 PM 67.8 °F 67.6 °F 99% 29.77 in 10.0 mi WSW 4.6 mph - N/A   Overcast
10:55 PM 67.8 °F 67.8 °F 100% 29.77 in 10.0 mi WSW 5.8 mph - N/A   Overcast
11:15 PM 68.0 °F 68.0 °F 100% 29.76 in 10.0 mi West 8.1 mph - N/A   Overcast
11:35 PM 68.0 °F 67.5 °F 98% 29.76 in 10.0 mi West 6.9 mph - N/A   Overcast
11:55 PM 67.5 °F 67.3 °F 99% 29.75 in 10.0 mi West 5.8 mph - N/A   Overcast